Weather History for KISQ - August, 2013

Change the Weather History Date:

Thursday, August 29, 2013

  Actual Average Record
Temperature  
Mean Temperature 69 °F -  
Max Temperature 80 °F 73 °F 88 °F (1991)
Min Temperature 58 °F 51 °F 37 °F (1968)
Cooling Degree Days 4    
Growing Degree Days 19 (Base 50)    
Moisture  
Dew Point 66 °F    
Average Humidity 88    
Maximum Humidity 99    
Minimum Humidity 70    
Precipitation  
Precipitation 0.00 in - - ()
Sea Level Pressure  
Sea Level Pressure 30.03 in    
Wind  
Wind Speed 2 mph (SSW)    
Max Wind Speed 10 mph    
Max Gust Speed 16 mph    
Visibility 9 miles    
Events Rain    
Averages and records for this station are not official NWS values.
T = Trace of Precipitation, MM = Missing Value Source: NWS Daily Summary

Daily Weather History Graph

Daily Weather History Graph

Search for Another Location

Airport or City:

Trip Planner

Search our weather history database for the weather conditions in past years. The results will help you decide how hot, cold, wet, or windy it might be!

Date:

Astronomy

Aug. 29, 2013 Rise Set
Actual Time 7:02 AM EDT 8:28 PM EDT
Civil Twilight 6:30 AM EDT 8:59 PM EDT
Nautical Twilight 5:53 AM EDT 9:36 PM EDT
Astronomical Twilight 5:12 AM EDT 10:16 PM EDT
Moon 12:43 AM EDT (8/29) 4:06 PM EDT (8/29)
Length of Visible Light 14h 28m
Length of Day
13h 26m
Last Quarter, 38% of the Moon is Illuminated
Aug 29
Last Quarter
Sep 5
New
Sep 12
First Quarter
Sep 19
Full
Sep 26
Last Quarter

Hourly Weather History & Observations

Time (EDT) Temp. Heat Index Dew Point Humidity Pressure Visibility Wind Dir Wind Speed Gust Speed Precip Events Conditions
12:14 AM 64.4 °F - 63.1 °F 96% 30.05 in 10.0 mi Calm Calm - N/A   Clear
12:35 AM 65.8 °F - 63.9 °F 93% 30.04 in 10.0 mi Calm Calm - N/A   Clear
12:54 AM 63.7 °F - 62.8 °F 97% 30.04 in 10.0 mi Calm Calm - N/A   Clear
1:15 AM 63.3 °F - 62.4 °F 97% 30.04 in 10.0 mi Calm Calm - N/A   Clear
1:34 AM 63.1 °F - 62.8 °F 99% 30.04 in 7.0 mi Calm Calm - N/A   Clear
1:55 AM 64.0 °F - 63.0 °F 96% 30.05 in 10.0 mi Calm Calm - N/A   Clear
2:14 AM 61.3 °F - 60.3 °F 96% 30.05 in 7.0 mi Calm Calm - N/A   Clear
2:35 AM 60.8 °F - 60.3 °F 98% 30.05 in 5.0 mi Calm Calm - N/A   Clear
2:54 AM 60.6 °F - 60.3 °F 99% 30.04 in 7.0 mi Calm Calm - N/A   Clear
3:14 AM 61.3 °F - 60.8 °F 98% 30.05 in 7.0 mi Calm Calm - N/A   Clear
3:35 AM 60.3 °F - 59.9 °F 99% 30.05 in 2.5 mi Calm Calm - N/A   Clear
3:54 AM 59.9 °F - 59.7 °F 99% 30.05 in 3.0 mi West 3.5 mph - N/A   Clear
4:15 AM 60.3 °F - 59.9 °F 99% 30.05 in 5.0 mi Calm Calm - N/A   Clear
4:34 AM 59.7 °F - 59.2 °F 98% 30.05 in 3.0 mi Calm Calm - N/A   Clear
4:54 AM 58.6 °F - 57.7 °F 97% 30.05 in 10.0 mi Calm Calm - N/A   Clear
5:15 AM 59.0 °F - 58.5 °F 98% 30.06 in 5.0 mi Calm Calm - N/A   Clear
5:34 AM 59.2 °F - 58.8 °F 99% 30.06 in 7.0 mi Calm Calm - N/A   Clear
5:54 AM 58.1 °F - 57.7 °F 99% 30.06 in 2.5 mi Calm Calm - N/A   Clear
6:15 AM 59.0 °F - 58.6 °F 99% 30.06 in 5.0 mi Calm Calm - N/A   Clear
6:34 AM 59.0 °F - 58.5 °F 98% 30.06 in 5.0 mi Calm Calm - N/A   Clear
6:55 AM 59.0 °F - 58.1 °F 97% 30.06 in 7.0 mi Calm Calm - N/A   Clear
7:15 AM 58.8 °F - 58.3 °F 98% 30.07 in 5.0 mi Calm Calm - N/A   Clear
7:34 AM 58.6 °F - 58.1 °F 98% 30.07 in 4.0 mi Calm Calm - N/A   Clear
7:55 AM 61.3 °F - 60.6 °F 97% 30.07 in 7.0 mi Calm Calm - N/A   Clear
8:14 AM 63.9 °F - 63.1 °F 97% 30.06 in 7.0 mi Calm Calm - N/A   Clear
8:34 AM 67.5 °F - 65.5 °F 93% 30.07 in 10.0 mi Calm Calm - N/A   Clear
8:54 AM 70.3 °F - 67.3 °F 90% 30.07 in 10.0 mi Calm Calm - N/A   Clear
9:14 AM 71.6 °F - 67.1 °F 86% 30.07 in 10.0 mi South 3.5 mph - N/A   Clear
9:35 AM 72.7 °F - 66.9 °F 82% 30.07 in 10.0 mi Calm Calm - N/A   Clear
9:54 AM 74.1 °F - 66.4 °F 77% 30.07 in 10.0 mi SSW 3.5 mph - N/A   Clear
10:14 AM 74.7 °F - 66.7 °F 76% 30.07 in 10.0 mi SSW 3.5 mph - N/A   Clear
10:35 AM 75.6 °F - 66.9 °F 74% 30.07 in 10.0 mi SSW 4.6 mph - N/A   Clear
10:54 AM 76.5 °F - 67.8 °F 75% 30.07 in 10.0 mi SSW 3.5 mph - N/A   Clear
11:15 AM 75.4 °F - 67.8 °F 77% 30.07 in 10.0 mi SSW 4.6 mph - N/A   Clear
11:34 AM 75.0 °F - 68.0 °F 79% 30.07 in 10.0 mi South 4.6 mph - N/A   Clear
11:55 AM 77.0 °F - 69.3 °F 77% 30.07 in 10.0 mi SSW 3.5 mph - N/A   Clear
12:14 PM 78.6 °F - 69.8 °F 74% 30.07 in 10.0 mi SSW 4.6 mph - N/A   Clear
12:34 PM 79.5 °F - 70.2 °F 73% 30.07 in 10.0 mi South 4.6 mph - N/A   Clear
12:55 PM 79.7 °F - 70.3 °F 73% 30.06 in 10.0 mi South 5.8 mph - N/A   Clear
1:14 PM 79.7 °F - 70.0 °F 72% 30.06 in 10.0 mi South 5.8 mph - N/A   Clear
1:34 PM 79.7 °F - 69.8 °F 72% 30.05 in 10.0 mi South 6.9 mph - N/A   Clear
1:55 PM 80.2 °F 83.3 °F 69.6 °F 70% 30.05 in 10.0 mi South 5.8 mph - N/A   Clear
2:14 PM 80.1 °F 83.0 °F 69.4 °F 70% 30.04 in 10.0 mi SSE 5.8 mph - N/A   Clear
2:35 PM 79.2 °F - 70.3 °F 74% 30.04 in 10.0 mi South 5.8 mph - N/A   Clear
2:54 PM 78.3 °F - 70.0 °F 76% 30.03 in 10.0 mi South 5.8 mph - N/A   Clear
3:14 PM 78.8 °F - 69.4 °F 73% 30.03 in 10.0 mi South 10.4 mph 16.1 mph N/A   Clear
3:35 PM 77.5 °F - 68.4 °F 73% 30.03 in 10.0 mi South 8.1 mph - N/A   Clear
3:54 PM 77.5 °F - 69.6 °F 76% 30.02 in 10.0 mi South 10.4 mph - N/A   Clear
4:14 PM 77.5 °F - 69.6 °F 76% 30.02 in 10.0 mi South 10.4 mph - N/A   Clear
4:35 PM 75.7 °F - 68.5 °F 78% 30.02 in 10.0 mi South 8.1 mph - N/A   Clear
4:54 PM 75.2 °F - 68.5 °F 80% 30.01 in 10.0 mi South 6.9 mph - N/A   Clear
5:14 PM 75.7 °F - 69.1 °F 80% 30.01 in 10.0 mi South 9.2 mph - N/A   Clear
5:34 PM 73.6 °F - 68.4 °F 84% 30.01 in 10.0 mi SSW 6.9 mph - N/A   Clear
5:54 PM 72.7 °F - 68.9 °F 88% 30.02 in 10.0 mi SSW 5.8 mph - N/A   Clear
6:15 PM 73.0 °F - 68.9 °F 87% 30.01 in 10.0 mi SSW 8.1 mph - N/A   Clear
6:34 PM 73.0 °F - 68.0 °F 84% 30.02 in 10.0 mi SW 6.9 mph - N/A   Clear
6:54 PM 72.7 °F - 68.0 °F 85% 30.02 in 10.0 mi SSW 3.5 mph - N/A   Clear
7:14 PM 72.3 °F - 68.2 °F 87% 30.02 in 10.0 mi SW 3.5 mph - N/A   Clear
7:34 PM 72.1 °F - 68.4 °F 88% 30.01 in 10.0 mi South 4.6 mph - N/A   Clear
7:54 PM 72.3 °F - 67.6 °F 85% 30.00 in 10.0 mi South 4.6 mph - N/A   Clear
8:14 PM 71.2 °F - 67.5 °F 88% 29.99 in 10.0 mi South 4.6 mph - N/A   Clear
8:34 PM 70.7 °F - 67.8 °F 91% 29.98 in 10.0 mi South 6.9 mph - N/A   Clear
8:54 PM 70.7 °F - 68.0 °F 91% 29.98 in 10.0 mi South 5.8 mph - N/A   Clear
9:15 PM 69.8 °F - 68.4 °F 95% 29.97 in 10.0 mi South 5.8 mph - N/A Rain Light Rain
9:34 PM 69.8 °F - 68.5 °F 96% 29.97 in 7.0 mi South 6.9 mph - N/A   Clear
9:54 PM 69.8 °F - 68.5 °F 96% 29.96 in 7.0 mi South 5.8 mph - N/A   Clear
10:14 PM 69.8 °F - 68.5 °F 96% 29.95 in 7.0 mi South 4.6 mph - N/A   Scattered Clouds
10:34 PM 69.8 °F - 68.5 °F 96% 29.93 in 7.0 mi South 5.8 mph - N/A   Scattered Clouds
10:55 PM 70.2 °F - 68.5 °F 95% 29.92 in 10.0 mi SSW 5.8 mph - N/A   Clear
11:14 PM 70.3 °F - 68.4 °F 93% 29.92 in 10.0 mi SSW 5.8 mph - N/A   Clear
11:34 PM 70.7 °F - 68.2 °F 92% 29.92 in 10.0 mi SSW 5.8 mph - N/A   Clear
11:55 PM 71.4 °F - 67.8 °F 88% 29.92 in 10.0 mi SSW 10.4 mph - N/A   Scattered Clouds